Time,TemperatureF,DewpointF,PressureIn,WindDirection,WindDirectionDegrees,WindSpeedMPH,WindSpeedGustMPH,Humidity,HourlyPrecipIn,Conditions,Clouds,dailyrainin,SoftwareType,DateUTC
2013-07-25 00:00:00,68.0,52.0,29.93,NNE,24,4.0,20.0,58,0.00,,,-99.99,,2013-07-25 04:00:00,
2013-07-25 00:33:00,68.0,52.0,29.93,NNE,24,4.0,20.0,58,0.00,,,-99.99,,2013-07-25 04:33:00,
2013-07-25 00:43:00,68.0,52.0,29.93,NNE,24,4.0,20.0,58,0.00,,,-99.99,,2013-07-25 04:43:00,
2013-07-25 00:53:00,68.0,52.0,29.93,NNE,24,4.0,20.0,58,0.00,,,-99.99,,2013-07-25 04:53:00,
2013-07-25 01:00:00,66.0,51.0,29.93,NNE,16,7.0,20.0,59,0.00,,,-99.99,,2013-07-25 05:00:00,
2013-07-25 01:32:00,66.0,51.0,29.93,NNE,16,7.0,20.0,59,0.00,,,-99.99,,2013-07-25 05:32:00,
2013-07-25 01:43:00,66.0,51.0,29.93,NNE,16,7.0,20.0,59,0.00,,,-99.99,,2013-07-25 05:43:00,
2013-07-25 01:52:00,66.0,51.0,29.93,NNE,16,7.0,20.0,59,0.00,,,-99.99,,2013-07-25 05:52:00,
2013-07-25 02:00:00,65.0,51.0,29.93,NE,41,9.0,18.0,61,0.00,,,-99.99,,2013-07-25 06:00:00,
2013-07-25 02:32:00,65.0,51.0,29.93,NE,41,9.0,18.0,61,0.00,,,-99.99,,2013-07-25 06:32:00,
2013-07-25 02:42:00,65.0,51.0,29.93,NE,41,9.0,18.0,61,0.00,,,-99.99,,2013-07-25 06:42:00,
2013-07-25 02:52:00,65.0,51.0,29.93,NE,41,9.0,18.0,61,0.00,,,-99.99,,2013-07-25 06:52:00,
2013-07-25 03:00:00,64.0,51.0,29.93,NNE,15,10.0,-999.0,61,-99.99,,,-99.99,,2013-07-25 07:00:00,
2013-07-25 03:33:00,64.0,51.0,29.93,NNE,15,10.0,-999.0,61,-99.99,,,-99.99,,2013-07-25 07:33:00,
2013-07-25 03:43:00,64.0,51.0,29.93,NNE,15,10.0,-999.0,61,-99.99,,,-99.99,,2013-07-25 07:43:00,
2013-07-25 03:53:00,64.0,51.0,29.93,NNE,15,10.0,-999.0,61,-99.99,,,-99.99,,2013-07-25 07:53:00,
2013-07-25 04:00:00,64.0,50.0,29.93,NE,46,10.0,19.0,60,0.00,,,-99.99,,2013-07-25 08:00:00,
2013-07-25 04:32:00,64.0,50.0,29.93,NE,46,10.0,19.0,60,0.00,,,-99.99,,2013-07-25 08:32:00,
2013-07-25 04:44:00,64.0,50.0,29.93,NE,46,10.0,19.0,60,0.00,,,-99.99,,2013-07-25 08:44:00,
2013-07-25 04:52:00,64.0,50.0,29.93,NE,46,10.0,19.0,60,0.00,,,-99.99,,2013-07-25 08:52:00,
2013-07-25 05:00:00,64.0,49.0,29.95,North,2,11.0,21.0,59,0.00,,,-99.99,,2013-07-25 09:00:00,
2013-07-25 05:43:00,64.0,49.0,29.95,North,2,11.0,21.0,59,0.00,,,-99.99,,2013-07-25 09:43:00,
2013-07-25 05:53:00,64.0,49.0,29.95,North,2,11.0,21.0,59,0.00,,,-99.99,,2013-07-25 09:53:00,
2013-07-25 06:00:00,63.0,47.0,29.96,NNE,20,11.0,20.0,57,0.00,,,-99.99,,2013-07-25 10:00:00,
2013-07-25 06:32:00,63.0,47.0,29.96,NNE,20,11.0,20.0,57,0.00,,,-99.99,,2013-07-25 10:32:00,
2013-07-25 06:43:00,63.0,47.0,29.96,NNE,20,11.0,20.0,57,0.00,,,-99.99,,2013-07-25 10:43:00,
2013-07-25 06:53:00,63.0,47.0,29.96,NNE,20,11.0,20.0,57,0.00,,,-99.99,,2013-07-25 10:53:00,
2013-07-25 07:00:00,62.0,48.0,29.96,North,10,11.0,-999.0,60,-99.99,,,-99.99,,2013-07-25 11:00:00,
2013-07-25 07:32:00,62.0,48.0,29.96,North,10,11.0,-999.0,60,-99.99,,,-99.99,,2013-07-25 11:32:00,
2013-07-25 07:43:00,62.0,48.0,29.96,North,10,11.0,-999.0,60,-99.99,,,-99.99,,2013-07-25 11:43:00,
2013-07-25 07:52:00,62.0,48.0,29.96,North,10,11.0,-999.0,60,-99.99,,,-99.99,,2013-07-25 11:52:00,
2013-07-25 08:00:00,62.0,50.0,29.99,NE,56,5.0,16.0,64,0.00,,,-99.99,,2013-07-25 12:00:00,
2013-07-25 08:32:00,62.0,50.0,29.99,NE,56,5.0,16.0,64,0.00,,,-99.99,,2013-07-25 12:32:00,
2013-07-25 08:45:00,62.0,50.0,29.99,NE,56,5.0,16.0,64,0.00,,,-99.99,,2013-07-25 12:45:00,
2013-07-25 08:53:00,62.0,50.0,29.99,NE,56,5.0,16.0,64,0.00,,,-99.99,,2013-07-25 12:53:00,
2013-07-25 09:00:00,62.0,50.0,30.01,NNE,29,11.0,15.0,65,0.00,,,-99.99,,2013-07-25 13:00:00,
2013-07-25 09:43:00,62.0,50.0,30.01,NNE,29,11.0,15.0,65,0.00,,,-99.99,,2013-07-25 13:43:00,
2013-07-25 09:53:00,62.0,50.0,30.01,NNE,29,11.0,15.0,65,0.00,,,-99.99,,2013-07-25 13:53:00,
2013-07-25 10:00:00,63.0,51.0,30.02,North,3,8.0,13.0,65,0.00,,,-99.99,,2013-07-25 14:00:00,
2013-07-25 10:33:00,63.0,51.0,30.02,North,3,8.0,13.0,65,0.00,,,-99.99,,2013-07-25 14:33:00,
2013-07-25 10:43:00,63.0,51.0,30.02,North,3,8.0,13.0,65,0.00,,,-99.99,,2013-07-25 14:43:00,
2013-07-25 10:53:00,63.0,51.0,30.02,North,3,8.0,13.0,65,0.00,,,-99.99,,2013-07-25 14:53:00,
2013-07-25 11:00:00,64.0,52.0,30.02,NNE,18,5.0,15.0,67,0.00,,,-99.99,,2013-07-25 15:00:00,
2013-07-25 11:33:00,64.0,52.0,30.02,NNE,18,5.0,15.0,67,0.00,,,-99.99,,2013-07-25 15:33:00,
2013-07-25 11:44:00,64.0,52.0,30.02,NNE,18,5.0,15.0,67,0.00,,,-99.99,,2013-07-25 15:44:00,
2013-07-25 11:53:00,64.0,52.0,30.02,NNE,18,5.0,15.0,67,0.00,,,-99.99,,2013-07-25 15:53:00,
2013-07-25 12:00:00,65.0,53.0,30.05,NE,44,3.0,11.0,65,0.00,,,-99.99,,2013-07-25 16:00:00,
2013-07-25 12:45:00,65.0,53.0,30.05,NE,44,3.0,11.0,65,0.00,,,-99.99,,2013-07-25 16:45:00,
2013-07-25 12:53:00,65.0,53.0,30.05,NE,44,3.0,11.0,65,0.00,,,-99.99,,2013-07-25 16:53:00,
2013-07-25 13:00:00,66.0,54.0,30.04,NNE,25,5.0,11.0,67,0.00,,,-99.99,,2013-07-25 17:00:00,
2013-07-25 13:43:00,66.0,54.0,30.04,NNE,25,5.0,11.0,67,0.00,,,-99.99,,2013-07-25 17:43:00,
2013-07-25 13:53:00,66.0,54.0,30.04,NNE,25,5.0,11.0,67,0.00,,,-99.99,,2013-07-25 17:53:00,
2013-07-25 14:00:00,66.0,55.0,30.03,ENE,70,2.0,12.0,68,0.00,,,-99.99,,2013-07-25 18:00:00,
2013-07-25 14:33:00,66.0,55.0,30.03,ENE,70,2.0,12.0,68,0.00,,,-99.99,,2013-07-25 18:33:00,
2013-07-25 14:43:00,66.0,55.0,30.03,ENE,70,2.0,12.0,68,0.00,,,-99.99,,2013-07-25 18:43:00,
2013-07-25 14:52:00,66.0,55.0,30.03,ENE,70,2.0,12.0,68,0.00,,,-99.99,,2013-07-25 18:52:00,
2013-07-25 15:00:00,66.0,55.0,30.03,ENE,68,10.0,-999.0,68,-99.99,,,-99.99,,2013-07-25 19:00:00,
2013-07-25 15:43:00,66.0,55.0,30.03,ENE,68,10.0,-999.0,68,-99.99,,,-99.99,,2013-07-25 19:43:00,
2013-07-25 15:53:00,66.0,55.0,30.03,ENE,68,10.0,-999.0,68,-99.99,,,-99.99,,2013-07-25 19:53:00,
2013-07-25 16:00:00,67.0,56.0,30.03,NE,46,2.0,11.0,69,0.00,,,-99.99,,2013-07-25 20:00:00,
2013-07-25 16:43:00,67.0,56.0,30.03,NE,46,2.0,11.0,69,0.00,,,-99.99,,2013-07-25 20:43:00,
2013-07-25 16:54:00,67.0,56.0,30.03,NE,46,2.0,11.0,69,0.00,,,-99.99,,2013-07-25 20:54:00,
2013-07-25 17:00:00,67.0,56.0,30.03,NNE,21,5.0,10.0,69,0.00,,,-99.99,,2013-07-25 21:00:00,
2013-07-25 17:44:00,67.0,56.0,30.03,NNE,21,5.0,10.0,69,0.00,,,-99.99,,2013-07-25 21:44:00,
2013-07-25 17:53:00,67.0,56.0,30.03,NNE,21,5.0,10.0,69,0.00,,,-99.99,,2013-07-25 21:53:00,
2013-07-25 18:00:00,67.0,57.0,30.02,NE,40,4.0,10.0,71,0.00,,,-99.99,,2013-07-25 22:00:00,
2013-07-25 18:33:00,67.0,57.0,30.02,NE,40,4.0,10.0,71,0.00,,,-99.99,,2013-07-25 22:33:00,
2013-07-25 18:43:00,67.0,57.0,30.02,NE,40,4.0,10.0,71,0.00,,,-99.99,,2013-07-25 22:43:00,
2013-07-25 18:53:00,67.0,57.0,30.02,NE,40,4.0,10.0,71,0.00,,,-99.99,,2013-07-25 22:53:00,
2013-07-25 19:00:00,66.0,57.0,30.03,NNE,26,5.0,10.0,71,0.00,,,-99.99,,2013-07-25 23:00:00,
2013-07-25 19:32:00,66.0,57.0,30.03,NNE,26,5.0,10.0,71,0.00,,,-99.99,,2013-07-25 23:32:00,
2013-07-25 19:43:00,66.0,57.0,30.03,NNE,26,5.0,10.0,71,0.00,,,-99.99,,2013-07-25 23:43:00,
2013-07-25 19:52:00,66.0,57.0,30.03,NNE,26,5.0,10.0,71,0.00,,,-99.99,,2013-07-25 23:52:00,
2013-07-25 20:00:00,66.0,57.0,30.03,NE,42,0.0,7.0,72,0.00,,,-99.99,,2013-07-26 00:00:00,
2013-07-25 20:33:00,66.0,57.0,30.03,NE,42,0.0,7.0,72,0.00,,,-99.99,,2013-07-26 00:33:00,
2013-07-25 20:43:00,66.0,57.0,30.03,NE,42,0.0,7.0,72,0.00,,,-99.99,,2013-07-26 00:43:00,
2013-07-25 20:52:00,66.0,57.0,30.03,NE,42,0.0,7.0,72,0.00,,,-99.99,,2013-07-26 00:52:00,
2013-07-25 21:00:00,67.0,57.0,30.03,NE,37,0.0,5.0,72,0.00,,,-99.99,,2013-07-26 01:00:00,
2013-07-25 21:33:00,67.0,57.0,30.03,NE,37,0.0,5.0,72,0.00,,,-99.99,,2013-07-26 01:33:00,
2013-07-25 21:43:00,67.0,57.0,30.03,NE,37,0.0,5.0,72,0.00,,,-99.99,,2013-07-26 01:43:00,
2013-07-25 21:52:00,67.0,57.0,30.03,NE,37,0.0,5.0,72,0.00,,,-99.99,,2013-07-26 01:52:00,
2013-07-25 22:00:00,66.0,58.0,30.02,ENE,74,1.0,4.0,74,0.00,,,-99.99,,2013-07-26 02:00:00,
2013-07-25 22:43:00,66.0,58.0,30.02,ENE,74,1.0,4.0,74,0.00,,,-99.99,,2013-07-26 02:43:00,
2013-07-25 22:52:00,66.0,58.0,30.02,ENE,74,1.0,4.0,74,0.00,,,-99.99,,2013-07-26 02:52:00,
2013-07-25 23:00:00,67.0,57.0,30.02,NE,54,4.0,11.0,71,0.00,,,-99.99,,2013-07-26 03:00:00,
2013-07-25 23:33:00,67.0,57.0,30.02,NE,54,4.0,11.0,71,0.00,,,-99.99,,2013-07-26 03:33:00,
2013-07-25 23:44:00,67.0,57.0,30.02,NE,54,4.0,11.0,71,0.00,,,-99.99,,2013-07-26 03:44:00,
2013-07-25 23:53:00,67.0,57.0,30.02,NE,54,4.0,11.0,71,0.00,,,-99.99,,2013-07-26 03:53:00,